"Pseudo-MPEC" for C1CLXN5

Created 2026 Mar 12 6:35:09 UT using Find_Orb

Click here for an explanation of pseudo-MPECs

 
 Astrometry: 
     C1CLXN5*1C2026 02 26.29020710 24 23.792+33 07 36.73   ~2Q7Z 22.63GVNEOCPV00
     C1CLXN5 1C2026 02 26.29579210 24 24.685+33 07 57.68   ~2Q7Z 22.16GVNEOCPV00
     C1CLXN5 1C2026 02 26.30137710 24 25.614+33 08 19.36   ~2Q7Z       VNEOCPV00
     C1CLXN5 1C2026 02 26.30696910 24 26.492+33 08 40.20   ~2Q7Z 22.39GVNEOCPV00
     C1CLXN5 1C2026 02 26.46165010 24 52.513+33 18 10.40   ~2QBK 22.46GVNEOCPV00
     C1CLXN5 1C2026 02 26.46244410 24 52.643+33 18 13.28   ~2QBK 22.65GVNEOCPV00
     C1CLXN5 1C2026 02 26.46323910 24 52.794+33 18 16.02   ~2QBK 22.61GVNEOCPV00
     C1CLXN5 1C2026 02 26.46403210 24 52.931+33 18 19.12   ~2QBK 22.32GVNEOCPV00
     C1CLXN5 1C2026 02 27.26458310 27 45.644+34 10 50.23   ~2R6o 22.41GVNEOCPV00
     C1CLXN5 1C2026 02 27.26651710 27 45.986+34 10 58.08   ~2R6o       VNEOCPV00
     C1CLXN5 1C2026 02 27.26748610 27 46.177+34 11 02.18   ~2R6o 22.28GVNEOCPV00
     C1CLXN5 0C2026 03 06.45345711 13 14.187+44 56 08.79   ~3BH5 21.31GVNEOCPF51
     C1CLXN5 0C2026 03 06.47629811 13 27.331+44 58 46.81   ~3BH5 21.23GVNEOCPF51
     C1CLXN5 1C2026 03 07.40074311 24 11.203+46 49 31.22   ~37B5 21.42GVNEOCPI52
     C1CLXN5 1C2026 03 07.41014311 24 17.852+46 50 39.37   ~37B5 21.16GVNEOCPI52
     C1CLXN5 1C2026 03 07.42095211 24 25.474+46 51 56.92   ~37B5 21.58GVNEOCPI52
     C1CLXN5 1C2026 03 07.43229411 24 33.656+46 53 17.16   ~37B5 21.70GVNEOCPI52
     C1CLXN5 0C2026 03 08.39861011 38 09.140+48 56 42.30   ~38BK 20.9 RVNEOCP291
     C1CLXN5 0C2026 03 08.40866011 38 17.780+48 57 59.40   ~38BK 21.1 RVNEOCP291
     C1CLXN5 0C2026 03 08.41883011 38 26.550+48 59 16.70   ~38BK 20.8 RVNEOCP291

Station data:
(291) LPL/Spacewatch II  (N31.961669 W111.599905)  US/Arizona.  Observers J.
   V. Scotti, R. S. McMillan. 1.8-m f/2.7 reflector + CCD.
(F51) Pan-STARRS 1, Haleakala  (N20.707234 W156.255910)  US/Hawaii.
   Observers J. Herman, T. Lowe, P. Minguez, A. Schultz, I. Smith. Measurers
   K. Chambers, T. de Boer, J. Fairlamb, H. Gao, M. Huber, C.-C. Lin, E.
   Magnier, Y. Ramanjooloo, R. Wainscoat, R. Weryk. 1.8-m Ritchey-Chrétien +
   CCD.
(I52) Steward Observatory, Mt. Lemmon Station  (N32.442570 W110.788920)
   US/Arizona. Measurers T. Beuden, V. F. Carvajal, D. Fay, J. B. Fazekas, D.
   C. Fuls, A. R. Gibbs, A. D. Grauer, H. Gröller, J. K. Hogan, R. A.
   Kowalski, S. M. Larson, G. J. Leonard, D. Rankin, R. L. Seaman, F. C.
   Shelly, K. W. Wierzchoś. 1.0-m prime focus + CCD.
(V00) Kitt Peak-Bok  (N31.963125 W111.600190)  US/Arizona. Measurers T.
   Beuden, V. F. Carvajal, D. Fay, J. B. Fazekas, D. C. Fuls, A. R. Gibbs, A.
   D. Grauer, H. Gröller, J. K. Hogan, R. A. Kowalski, S. M. Larson, G. J.
   Leonard, D. Rankin, R. L. Seaman, F. C. Shelly, K. W. Wierzchoś. 2.25-m
   reflector + 4x4K mosaic CCD.

Orbital elements:  C1CLXN5
   Perihelion 2026 Apr 10.768845 +/- 0.00888 TT = 18:27:08.2 (JD 2461141.268845)
Epoch 2026 Mar  8.0 TT = JDT 2461107.5   Earth MOID: 0.0329   Ma: 0.0285
M 347.892336173 +/- 0.07            (J2000 ecliptic)             AutoNEOCP
n   0.358545391 +/- 0.00214         Peri.  103.541235 +/- 0.022
a   1.962335616 +/- 0.0078          Node   104.004498 +/- 0.036
e   0.51294215 +/- 0.002            Incl.    2.772440 +/- 0.010
P   2.74891                H 25.92  G  0.15   U  8.6
q 0.955770961 +/- 0.000126    Q 2.968900271 +/- 0.0157
From 20 observations 2026 Feb. 26-Mar. 8; mean residual 0".24
Residuals in arcseconds: 
260226 V00  .04+  .01-    260226 V00  .12+  .11+    260307 I52  .08+  .46+    
260226 V00  .10-  .20-    260227 V00  .02-  .16-    260307 I52  .37-  .36+    
260226 V00  .22+  .38+    260227 V00  .24-  .24-    260307 I52  .58+  .62-    
260226 V00  .12-  .13+    260227 V00  .10-  .11-    260308 291  .20+  .50-    
260226 V00  .22+  .01+    260306 F51  .07+  .25+    260308 291  .09+  .01+    
260226 V00  .07+  .02+    260306 F51  .13-  .21-    260308 291  .13-  .08+    
260226 V00  .18+  .12-    260307 I52  .07-  .04+    

Ephemerides (geocentric):
Date (UTC) HH   RA             Dec           delta  r     elong  mag " sig PA
---- --------  ------------   ------------  ------ ------ -----  --- --------
2026 03 12 07  13 10 25.695   +57 21 11.02  .05445 1.0238 122.4 21.7 1.89  91
2026 03 12 08  13 11 52.059   +57 25 41.69  .05434 1.0237 122.3 21.7 1.92  91
2026 03 12 09  13 13 19.109   +57 30 09.58  .05424 1.0235 122.1 21.7 1.95  92
2026 03 12 10  13 14 46.846   +57 34 34.62  .05413 1.0233 121.9 21.7 1.98  92
2026 03 12 11  13 16 15.270   +57 38 56.75  .05403 1.0231 121.7 21.7 2.02  92
2026 03 12 12  13 17 44.382   +57 43 15.89  .05392 1.0229 121.6 21.7 2.05  92
2026 03 12 13  13 19 14.184   +57 47 31.96  .05382 1.0228 121.4 21.7 2.08  92
2026 03 12 14  13 20 44.674   +57 51 44.91  .05372 1.0226 121.2 21.7 2.11  92
2026 03 12 15  13 22 15.852   +57 55 54.64  .05361 1.0224 121.1 21.7 2.15  92
2026 03 12 16  13 23 47.720   +58 00 01.10  .05351 1.0222 120.9 21.7 2.18  92
2026 03 12 17  13 25 20.275   +58 04 04.20  .05341 1.0220 120.7 21.7 2.22  92
2026 03 12 18  13 26 53.517   +58 08 03.87  .05331 1.0219 120.5 21.7 2.25  92
2026 03 12 19  13 28 27.446   +58 12 00.04  .05321 1.0217 120.4 21.7 2.28  93
2026 03 12 20  13 30 02.059   +58 15 52.62  .05311 1.0215 120.2 21.7 2.32  93
2026 03 12 21  13 31 37.356   +58 19 41.56  .05301 1.0213 120.0 21.7 2.36  93
2026 03 12 22  13 33 13.334   +58 23 26.76  .05292 1.0211 119.8 21.7 2.39  93
2026 03 12 23  13 34 49.991   +58 27 08.15  .05282 1.0210 119.6 21.7 2.43  93
2026 03 13 00  13 36 27.325   +58 30 45.66  .05273 1.0208 119.5 21.7 2.46  93
2026 03 13 01  13 38 05.332   +58 34 19.20  .05263 1.0206 119.3 21.7 2.50  93
2026 03 13 02  13 39 44.010   +58 37 48.70  .05254 1.0204 119.1 21.7 2.54  94
2026 03 13 03  13 41 23.356   +58 41 14.09  .05244 1.0203 118.9 21.7 2.58  94
2026 03 13 04  13 43 03.365   +58 44 35.28  .05235 1.0201 118.8 21.7 2.62  94
2026 03 13 05  13 44 44.033   +58 47 52.19  .05226 1.0199 118.6 21.7 2.65  94
2026 03 13 06  13 46 25.357   +58 51 04.76  .05217 1.0197 118.4 21.7 2.69  94
2026 03 13 07  13 48 07.331   +58 54 12.89  .05208 1.0195 118.2 21.7 2.73  95
2026 03 13 08  13 49 49.950   +58 57 16.51  .05199 1.0194 118.0 21.7 2.77  95
2026 03 13 09  13 51 33.209   +59 00 15.55  .05190 1.0192 117.8 21.7 2.81  95
2026 03 13 10  13 53 17.101   +59 03 09.93  .05182 1.0190 117.7 21.7 2.85  95
2026 03 13 11  13 55 01.622   +59 05 59.56  .05173 1.0188 117.5 21.7 2.90  95
2026 03 13 12  13 56 46.764   +59 08 44.37  .05164 1.0187 117.3 21.7 2.94  96
2026 03 13 13  13 58 32.520   +59 11 24.29  .05156 1.0185 117.1 21.7 2.98  96
2026 03 13 14  14 00 18.884   +59 13 59.23  .05147 1.0183 116.9 21.7 3.02  96
2026 03 13 15  14 02 05.846   +59 16 29.12  .05139 1.0181 116.7 21.7 3.06  96
2026 03 13 16  14 03 53.401   +59 18 53.89  .05131 1.0180 116.5 21.7 3.11  96
2026 03 13 17  14 05 41.538   +59 21 13.45  .05123 1.0178 116.4 21.7 3.15  97
2026 03 13 18  14 07 30.250   +59 23 27.73  .05114 1.0176 116.2 21.7 3.19  97
2026 03 13 19  14 09 19.526   +59 25 36.66  .05106 1.0174 116.0 21.7 3.24  97
2026 03 13 20  14 11 09.359   +59 27 40.16  .05099 1.0173 115.8 21.7 3.28  97
2026 03 13 21  14 12 59.737   +59 29 38.17  .05091 1.0171 115.6 21.7 3.33  98
2026 03 13 22  14 14 50.650   +59 31 30.60  .05083 1.0169 115.4 21.7 3.37  98
2026 03 13 23  14 16 42.089   +59 33 17.38  .05075 1.0167 115.2 21.7 3.42  98
2026 03 14 00  14 18 34.040   +59 34 58.45  .05068 1.0166 115.0 21.7 3.46  98
2026 03 14 01  14 20 26.495   +59 36 33.73  .05060 1.0164 114.8 21.7 3.51  99
2026 03 14 02  14 22 19.439   +59 38 03.16  .05053 1.0162 114.6 21.7 3.56  99
2026 03 14 03  14 24 12.863   +59 39 26.67  .05046 1.0160 114.4 21.7 3.61  99
2026 03 14 04  14 26 06.752   +59 40 44.18  .05038 1.0159 114.3 21.7 3.65 100
2026 03 14 05  14 28 01.094   +59 41 55.64  .05031 1.0157 114.1 21.7 3.70 100
2026 03 14 06  14 29 55.875   +59 43 00.98  .05024 1.0155 113.9 21.7 3.75 100